This is the latest recevied weather packets stored in our database for station/object LX0APE-4. If no packets are shown the sender has not sent any weather packets the latest 10 day(s).
| Time | Temp. | Humidity | Pressure | Rain* | Wind** | Luminosity | Snow |
|---|---|---|---|---|---|---|---|
| 1777130835 | 34.44° C | 13% | 5014.6 hPa | 0 mm | - | - | - |
| 1777130535 | 34.44° C | 13% | 5014.5 hPa | 0 mm | - | - | - |
| 1777130235 | 33.89° C | 13% | 5014.7 hPa | 0 mm | - | - | - |
| 1777129935 | 32.22° C | 14% | 5014.7 hPa | 0 mm | - | - | - |
| 1777129635 | 31.67° C | 14% | 5014.7 hPa | 0 mm | - | - | - |
| 1777129335 | 31.67° C | 14% | 5014.7 hPa | 0 mm | - | - | - |
| 1777129035 | 31.11° C | 14% | 5014.7 hPa | 0 mm | - | - | - |
| 1777128735 | 31.11° C | 14% | 5014.7 hPa | 0 mm | - | - | - |
| 1777128436 | 31.11° C | 15% | 5014.6 hPa | 0 mm | - | - | - |
| 1777128135 | 31.11° C | 15% | 5014.6 hPa | 0 mm | - | - | - |
| 1777127841 | 31.11° C | 15% | 5014.5 hPa | 0 mm | - | - | - |
| 1777127835 | 31.11° C | 15% | 5014.5 hPa | 0 mm | - | - | - |
| 1777127535 | 31.67° C | 15% | 5014.7 hPa | 0 mm | - | - | - |
| 1777127235 | 32.78° C | 15% | 5014.5 hPa | 0 mm | - | - | - |
| 1777126935 | 31.67° C | 16% | 5014.8 hPa | 0 mm | - | - | - |
| 1777126635 | 31.11° C | 16% | 5014.8 hPa | 0 mm | - | - | - |
| 1777126336 | 30° C | 16% | 5014.7 hPa | 0 mm | - | - | - |
| 1777126042 | 30° C | 16% | 5014.6 hPa | 0 mm | - | - | - |
| 1777126035 | 30° C | 16% | 5014.6 hPa | 0 mm | - | - | - |
| 1777125735 | 30.56° C | 16% | 5014.8 hPa | 0 mm | - | - | - |
| 1777125435 | 31.11° C | 18% | 5014.8 hPa | 0 mm | - | - | - |
| 1777125141 | 30° C | 17% | 5014.7 hPa | 0 mm | - | - | - |
| 1777125136 | 30° C | 17% | 5014.7 hPa | 0 mm | - | - | - |
| 1777124836 | 30° C | 17% | 5014.6 hPa | 0 mm | - | - | - |
| 1777124536 | 30° C | 17% | 5014.8 hPa | 0 mm | - | - | - |
* Rain latest hour (hover to see other rain measurements)
** Current wind speed in m/s (hover to see current wind gust speed)